Regional Weather Roundup
Issued by NWS

Home | Current Version | Previous Version | Graphics & Text | Print | Product List | Glossary On
Versions: 1 2 3 4 5 6 7 8 9 10 11 12 13 14 15 16 17 18 19 20 21 22 23 24 25 26 27 28 29 30 31 32 33 34 35 36 37 38 39 40 41 42 43 44 45 46 47 48 49 50
000
ASUS45 KSLC 292310
RWRUT

UTAH REGIONAL WEATHER ROUNDUP
NATIONAL WEATHER SERVICE SALT LAKE CITY UT
500 PM MDT FRI MAY 29 2015

UTZ001>011-023>025-300000-

NORTHERN UTAH

CITY           SKY/WX    TMP DP  RH WIND       PRES   REMARKS
BRIGHAM CITY   SUNNY     73  42  33 NW5       30.14F
HILL AFB       SUNNY     73  37  26 N6        30.16F
LOGAN          SUNNY     71  40  32 VRB5      30.15F
OGDEN          SUNNY     73  43  33 VRB6      30.14F
PROVO AIRPORT  MOSUNNY   73  43  33 SW5       30.15F
SALT LAKE CITY MOSUNNY   76  34  21 N8        30.12F
VERNAL         MOSUNNY   69  40  34 E6        30.20F
WENDOVER       SUNNY     75  43  31 SE7       30.12F
HEBER CITY     SUNNY     73  34  23 NW3       30.17F
WEST JORDAN    SUNNY     73  45  35 NW8       30.15F

$$

UTZ012>022-026-027-300000-

SOUTHERN/CENTRAL UTAH

CITY           SKY/WX    TMP DP  RH WIND       PRES   REMARKS
BLANDING       SUNNY     76  24  14 N12       30.23S
BRYCE CANYON   CLOUDY    62  38  40 SE10      30.30R
CEDAR CITY     CLOUDY    72  41  32 N12       30.14S
DELTA          MOSUNNY   78  33  19 N7G18     30.12F
HANKSVILLE     SUNNY     81  32  17 S6        30.12F
MILFORD        LGT RAIN  68  50  52 W16       30.13R
MOAB/CYNLANDS  SUNNY     79  29  16 NE5       30.10F
PRICE          PTSUNNY   74  36  25 E12G22    30.18F
ST GEORGE      CLEAR     91  36  14 N7        29.94F
KANAB          PTSUNNY   77  36  22 N7        30.14S

$$

REGIONAL REPORTS     COLORADO/ARIZONA

CITY           SKY/WX    TMP DP  RH WIND       PRES   REMARKS
CRAIG, CO      PTSUNNY   63  42  46 NE10      30.27S
GRAND JUNCTION SUNNY     73  39  29 W8        30.14F
RIFLE          MOSUNNY   68  37  32 W8        30.18F
MONTROSE       MOSUNNY   72  36  26 N5        30.20F
CORTEZ         MOSUNNY   75  28  17 N12G20    30.16F
PAGE, AZ       MOSUNNY   81  36  19 W5        30.07F
GRAND CANYON   PTSUNNY   72  32  23 W5        30.21F
KINGMAN        SUNNY     92  14   5 SW17G24   29.98F
FLAGSTAFF      MOSUNNY   74  33  22 S9        30.24F

$$

REGIONAL REPORTS    NEVADA/IDAHO/WYOMING

CITY           SKY/WX    TMP DP  RH WIND       PRES   REMARKS
LAS VEGAS, NV  MOSUNNY   98  25   7 SE12      29.83F HX  91
ELY            MOSUNNY   75  39  27 W9        30.15F
ELKO           SUNNY     77  32  19 CALM      30.09F
POCATELLO, ID  SUNNY     73  42  32 NW8       30.15F
BURLEY         MOSUNNY   76  45  33 E9        30.08F
EVANSTON, WY   MOSUNNY   64  37  36 VRB3      30.27F
ROCK SPRINGS   SUNNY     61  37  41 CALM      30.28F
KEMMERER       MOSUNNY   64  32  29 CALM      30.29F

$$



USA.gov is the U.S. government's official web portal to all federal, state and local government web resources and services.